Probability
0 0 0 0 0 0 0 0 0 3 6 6 3 6 6 10 13 13 6 10 19 52 58 81 84 77 77 74 71 71 77 77 77 77 77 81 81 81 87 84 81 74 77 77 74 58 48 45 45
0 0 0 0 0 0 0 0 3 6 10 10 10 13 19 16 19 16 13 13 29 45 45 61 84 77 77 74 74 71 71 74 81 77 77 77 81 84 87 84 74 65 71 68 65 45 39 39 39
0 3 3 3 0 0 0 0 3 10 10 10 10 16 19 16 19 19 16 10 23 35 48 61 84 77 74 74 71 71 68 74 77 81 81 81 81 84 81 77 74 71 65 52 45 45 39 39 35
3 3 0 3 0 0 0 0 3 10 10 6 10 16 16 19 19 19 19 10 19 32 55 71 81 77 74 71 68 68 71 71 77 81 84 81 81 77 77 74 74 74 55 52 52 55 48 45 39
3 3 0 3 0 0 0 0 0 10 10 10 19 16 19 23 16 19 16 13 16 29 45 65 81 77 77 68 68 68 65 71 84 81 84 74 77 77 74 74 77 68 58 52 55 52 45 45 42
3 0 3 0 0 0 0 0 0 3 3 10 13 10 13 13 19 16 19 19 23 32 45 65 81 77 81 77 71 71 71 74 77 84 81 74 77 71 71 71 68 71 61 55 48 52 55 39 39
0 0 0 0 0 0 0 0 6 3 0 6 13 13 16 13 13 13 26 19 29 35 42 48 68 68 81 74 74 71 74 77 81 84 77 77 74 65 68 65 61 58 58 55 52 48 52 52 48
0 0 0 0 0 0 0 0 0 3 3 16 19 16 19 16 19 19 26 23 26 32 39 39 42 45 52 58 74 71 71 74 74 77 74 77 74 65 65 65 68 55 48 52 48 52 55 55 48
0 0 0 0 0 0 0 0 0 3 3 16 19 19 19 16 19 23 23 23 19 19 29 29 26 29 29 39 58 61 61 71 65 68 74 68 42 32 52 55 58 52 52 48 42 52 48 45 42
0 0 0 0 0 0 0 0 3 3 10 19 26 26 23 23 16 13 16 19 19 13 16 16 23 23 23 26 32 42 42 45 39 39 45 32 26 29 26 39 58 61 65 55 48 58 45 29 19
0 0 0 0 0 0 0 0 3 3 6 16 23 23 23 19 19 19 19 19 13 10 19 23 19 19 23 23 26 23 23 26 29 26 29 23 19 13 26 26 26 32 35 29 29 35 16 13 13
0 0 0 0 0 0 0 3 3 3 10 10 16 26 23 19 16 23 16 16 16 13 16 16 19 16 19 23 23 23 23 23 19 23 23 19 23 19 19 23 23 23 19 23 19 16 16 13 10
0 0 0 0 0 0 3 3 3 3 10 19 19 23 23 23 16 13 19 23 16 19 23 19 19 13 16 16 16 16 16 23 19 19 19 23 23 19 19 19 16 19 16 13 13 13 10 10 3
0 0 0 0 0 0 0 3 6 6 10 23 23 16 16 16 16 16 16 16 19 19 23 29 29 19 19 23 26 19 23 26 23 16 19 26 23 19 19 16 19 16 16 16 13 10 13 6 6
0 0 0 0 0 0 0 3 6 6 13 23 26 19 13 16 19 19 19 23 19 23 29 32 23 26 26 23 26 23 26 26 23 26 23 26 23 19 19 16 16 16 16 16 13 10 3 3 0
0 0 0 0 0 0 0 6 10 10 16 19 23 23 16 13 19 19 19 23 23 23 23 23 26 26 26 19 23 29 26 26 23 26 19 26 26 16 19 19 19 16 19 16 13 6 3 3 3
0 0 0 0 0 0 0 0 6 6 13 13 19 23 16 13 19 19 19 23 26 19 23 29 29 26 35 32 32 26 29 26 19 26 19 26 26 23 19 19 16 10 19 19 10 10 3 3 3
0 0 0 0 0 0 0 0 6 3 10 13 13 16 19 19 19 19 32 32 29 26 26 32 32 35 39 39 39 35 39 32 26 19 23 23 23 23 16 19 19 13 13 6 6 10 6 3 10
0 0 0 0 0 0 0 0 3 3 6 10 10 13 16 19 23 26 29 29 32 32 39 32 29 32 39 35 39 39 42 29 29 26 26 19 26 29 23 23 19 16 13 6 6 10 10 6 3
0 0 0 0 0 0 0 3 3 3 10 13 13 16 23 23 29 26 32 32 35 32 39 42 35 32 35 35 32 32 29 32 29 26 23 26 29 29 29 23 19 13 6 6 6 6 10 6 6
0 0 0 0 0 0 3 3 6 3 10 10 16 23 26 26 23 26 32 29 32 29 39 39 35 35 39 42 39 32 32 35 35 29 26 23 32 29 23 26 26 16 6 6 6 6 6 6 6
0 0 0 0 0 0 0 0 10 13 13 10 6 19 23 23 23 26 19 23 19 23 29 35 39 39 42 35 42 35 39 32 35 35 29 26 29 29 26 29 26 19 10 10 10 10 10 10 10
0 0 0 0 0 0 0 0 3 10 10 13 6 13 19 16 16 19 16 19 19 29 32 45 48 39 35 35 35 32 35 42 39 35 35 29 35 39 32 29 23 19 13 13 13 10 10 10 6
0 0 0 0 0 0 0 0 0 3 10 10 6 6 13 16 16 19 16 13 19 26 32 45 48 42 42 32 39 29 29 35 39 42 42 42 42 39 32 26 23 29 19 16 13 13 13 13 10
0 0 0 0 0 0 0 0 0 0 6 3 10 10 10 16 16 23 26 19 19 26 35 45 48 39 39 39 39 39 35 32 32 35 39 39 39 39 32 32 29 29 16 10 16 13 16 13 13
0 0 0 0 0 0 0 0 3 3 3 0 10 13 13 13 13 23 23 23 26 32 32 42 45 39 35 35 42 39 35 35 39 39 35 39 35 29 29 23 26 23 19 23 16 16 16 16 10
0 0 0 0 0 0 0 0 0 6 6 6 13 10 16 16 16 19 23 19 23 26 29 39 32 32 39 39 39 42 39 42 42 39 35 26 29 29 19 16 19 19 16 16 13 13 16 19 13
0 0 0 0 0 0 0 0 0 0 6 10 10 13 16 19 19 19 19 23 16 16 19 26 29 29 35 39 35 32 32 35 32 35 29 26 26 23 23 19 16 16 19 16 13 13 13 13 13
0 0 0 0 0 0 0 0 0 0 0 3 6 6 10 16 19 23 19 13 13 23 19 26 29 29 29 32 29 29 32 29 29 26 29 19 16 16 19 16 16 16 13 13 10 10 6 10 13
0 0 0 0 0 0 0 0 0 0 0 0 3 6 6 16 19 16 13 13 13 13 13 26 29 29 29 26 29 29 26 26 32 29 19 13 16 13 13 16 13 10 13 13 13 10 10 6 6
Height
5916 5916 5916 5916 5916 5914 5912 5911 5911 5911 5911 5910 5908 5907 5905 5904 5903 5903 5900 5897 5895 5893 5892 5891 5890 5889 5888 5888 5887 5886 5886 5885 5885 5885 5885 5884 5884 5884 5884 5883 5883 5882 5883 5882 5882 5883 5882 5881 5882
5916 5916 5916 5916 5915 5913 5913 5912 5912 5912 5911 5909 5908 5907 5905 5904 5902 5900 5898 5897 5895 5893 5892 5891 5890 5889 5889 5888 5887 5886 5886 5885 5885 5885 5884 5884 5884 5884 5883 5883 5883 5882 5882 5882 5882 5882 5882 5881 5882
5916 5916 5917 5916 5914 5913 5913 5912 5912 5911 5910 5909 5908 5907 5906 5904 5902 5900 5898 5896 5894 5893 5892 5891 5890 5890 5889 5888 5887 5887 5886 5886 5885 5885 5884 5884 5884 5884 5883 5883 5883 5882 5882 5882 5882 5882 5882 5882 5881
5916 5916 5917 5916 5914 5913 5912 5912 5911 5912 5911 5910 5908 5907 5906 5904 5902 5900 5898 5896 5894 5893 5892 5891 5890 5890 5889 5888 5888 5887 5886 5885 5885 5885 5884 5884 5884 5884 5883 5883 5882 5882 5882 5882 5881 5881 5882 5882 5881
5916 5916 5916 5914 5913 5912 5911 5912 5912 5911 5911 5910 5908 5907 5905 5904 5902 5899 5898 5896 5895 5894 5893 5892 5891 5890 5889 5888 5888 5887 5886 5885 5885 5885 5884 5884 5884 5883 5883 5883 5882 5882 5882 5881 5881 5881 5881 5881 5881
5915 5915 5915 5914 5913 5912 5911 5911 5911 5911 5910 5909 5908 5907 5905 5904 5902 5899 5898 5897 5895 5894 5893 5892 5891 5890 5889 5889 5888 5887 5886 5885 5885 5884 5884 5884 5883 5883 5883 5882 5882 5882 5882 5881 5881 5881 5881 5881 5881
5915 5914 5914 5913 5912 5912 5912 5910 5910 5911 5910 5909 5907 5906 5904 5903 5902 5900 5898 5897 5896 5895 5894 5893 5892 5891 5890 5889 5888 5887 5886 5885 5885 5884 5884 5883 5883 5883 5882 5882 5882 5882 5881 5881 5880 5880 5880 5880 5880
5913 5914 5912 5912 5912 5911 5912 5911 5910 5909 5909 5908 5907 5905 5904 5903 5901 5900 5898 5897 5896 5895 5894 5893 5892 5891 5890 5889 5888 5887 5886 5885 5884 5884 5883 5883 5883 5882 5882 5882 5882 5881 5881 5880 5880 5880 5880 5880 5879
5911 5912 5911 5910 5911 5911 5911 5910 5909 5908 5907 5907 5906 5905 5904 5902 5901 5899 5898 5897 5896 5895 5894 5893 5892 5891 5890 5889 5888 5887 5886 5885 5884 5884 5883 5883 5882 5882 5882 5881 5881 5881 5880 5880 5879 5879 5879 5879 5879
5909 5910 5909 5909 5909 5910 5909 5909 5908 5908 5906 5906 5905 5904 5903 5902 5900 5899 5898 5897 5896 5895 5894 5893 5892 5891 5890 5889 5888 5887 5886 5885 5884 5884 5883 5882 5882 5882 5881 5881 5880 5880 5880 5879 5879 5878 5879 5878 5878
5907 5908 5907 5907 5908 5908 5908 5907 5907 5906 5905 5905 5904 5903 5902 5901 5900 5899 5898 5897 5896 5894 5893 5892 5891 5891 5890 5889 5888 5887 5886 5885 5884 5884 5883 5882 5881 5881 5880 5880 5879 5879 5879 5878 5878 5878 5878 5878 5877
5905 5905 5904 5905 5906 5906 5906 5906 5905 5905 5904 5903 5902 5901 5901 5900 5899 5898 5897 5896 5895 5894 5893 5892 5891 5890 5890 5889 5888 5887 5886 5885 5884 5884 5882 5881 5881 5880 5880 5879 5878 5878 5877 5877 5877 5877 5877 5876 5876
5902 5902 5902 5902 5903 5904 5904 5903 5903 5903 5902 5901 5900 5899 5899 5898 5898 5897 5896 5895 5894 5893 5893 5891 5891 5890 5889 5889 5888 5887 5886 5885 5884 5883 5882 5881 5880 5879 5879 5878 5877 5877 5876 5876 5876 5876 5875 5875 5874
5898 5899 5899 5900 5900 5901 5901 5901 5901 5901 5900 5899 5899 5898 5897 5896 5896 5895 5894 5893 5892 5892 5892 5891 5891 5890 5889 5888 5887 5886 5885 5884 5883 5882 5881 5880 5880 5879 5878 5877 5877 5876 5875 5875 5874 5874 5874 5873 5873
5895 5896 5897 5897 5897 5898 5898 5899 5899 5898 5897 5897 5896 5896 5895 5894 5894 5893 5892 5891 5891 5890 5890 5890 5889 5889 5888 5887 5886 5885 5884 5883 5882 5881 5881 5880 5879 5878 5877 5876 5876 5875 5874 5873 5873 5872 5872 5872 5871
5891 5892 5894 5895 5895 5895 5896 5896 5896 5894 5894 5894 5894 5894 5894 5892 5892 5891 5891 5890 5889 5889 5888 5888 5887 5887 5886 5885 5885 5884 5883 5882 5882 5881 5880 5879 5878 5877 5876 5875 5874 5874 5873 5872 5871 5871 5870 5870 5869
5887 5889 5891 5892 5892 5893 5893 5893 5893 5891 5891 5891 5891 5892 5891 5890 5890 5889 5889 5889 5888 5887 5887 5886 5886 5885 5885 5884 5883 5882 5882 5881 5880 5880 5879 5878 5876 5876 5875 5874 5873 5872 5872 5871 5871 5870 5869 5868 5868
5884 5885 5886 5888 5888 5889 5889 5889 5889 5889 5889 5888 5889 5889 5888 5888 5888 5887 5887 5887 5886 5886 5885 5884 5884 5883 5883 5882 5882 5881 5880 5879 5879 5878 5877 5876 5875 5874 5873 5872 5871 5870 5870 5870 5869 5869 5868 5867 5866
5879 5880 5882 5883 5884 5884 5885 5885 5886 5886 5886 5886 5886 5886 5885 5885 5885 5885 5884 5885 5884 5883 5882 5882 5882 5881 5881 5880 5880 5879 5879 5878 5877 5876 5876 5875 5874 5873 5872 5871 5870 5869 5869 5868 5868 5867 5866 5865 5864
5874 5876 5877 5879 5880 5880 5880 5881 5882 5882 5882 5882 5882 5882 5882 5881 5882 5882 5882 5882 5882 5881 5880 5880 5879 5878 5877 5877 5877 5877 5877 5876 5876 5875 5874 5873 5872 5871 5870 5869 5869 5868 5867 5867 5866 5865 5864 5863 5862
5870 5872 5874 5875 5875 5875 5876 5877 5878 5879 5878 5879 5879 5879 5879 5879 5879 5879 5879 5879 5879 5878 5878 5878 5877 5876 5876 5876 5875 5875 5875 5874 5874 5873 5872 5871 5870 5869 5868 5867 5867 5866 5865 5865 5864 5863 5862 5861 5860
5866 5868 5869 5870 5870 5871 5872 5872 5873 5874 5874 5875 5875 5875 5876 5876 5876 5876 5875 5875 5875 5875 5875 5875 5874 5874 5873 5873 5873 5872 5872 5872 5871 5871 5870 5869 5868 5867 5866 5865 5864 5863 5863 5862 5861 5861 5860 5859 5858
5861 5863 5864 5865 5865 5866 5867 5867 5869 5868 5869 5870 5871 5871 5871 5872 5872 5872 5871 5871 5871 5872 5871 5871 5871 5870 5870 5870 5869 5869 5869 5869 5868 5868 5867 5867 5865 5864 5863 5862 5861 5860 5860 5859 5858 5858 5857 5856 5855
5856 5858 5859 5860 5860 5861 5862 5862 5862 5863 5864 5865 5866 5866 5866 5867 5868 5867 5867 5867 5868 5868 5867 5868 5868 5867 5867 5866 5865 5865 5865 5865 5865 5865 5864 5864 5863 5862 5860 5859 5858 5857 5856 5856 5855 5855 5854 5853 5852
5851 5853 5854 5854 5854 5855 5857 5856 5857 5858 5859 5860 5860 5860 5861 5862 5863 5863 5863 5863 5864 5864 5864 5864 5864 5863 5863 5862 5862 5862 5861 5861 5861 5861 5860 5860 5859 5858 5857 5856 5855 5854 5853 5853 5852 5851 5851 5850 5849
5846 5848 5849 5849 5850 5851 5851 5850 5852 5852 5853 5854 5854 5855 5855 5856 5857 5858 5858 5859 5859 5859 5860 5860 5859 5859 5858 5858 5858 5857 5857 5857 5857 5857 5856 5856 5855 5854 5853 5853 5852 5851 5850 5849 5848 5848 5847 5846 5845
5841 5842 5843 5844 5844 5845 5845 5845 5845 5846 5847 5848 5849 5849 5850 5850 5852 5852 5853 5854 5854 5854 5854 5854 5854 5854 5854 5853 5853 5853 5853 5852 5852 5852 5851 5851 5850 5850 5849 5848 5847 5846 5846 5845 5844 5843 5843 5842 5841
5836 5837 5838 5838 5838 5839 5839 5839 5840 5841 5841 5843 5844 5844 5844 5845 5846 5847 5848 5849 5849 5849 5849 5849 5848 5848 5849 5849 5848 5848 5848 5847 5847 5846 5846 5845 5845 5844 5844 5843 5842 5841 5841 5840 5839 5839 5838 5837 5837
5831 5832 5831 5832 5832 5833 5832 5835 5835 5835 5836 5837 5837 5837 5838 5839 5839 5840 5841 5842 5842 5843 5843 5843 5842 5842 5843 5843 5843 5842 5842 5842 5841 5841 5840 5840 5839 5839 5839 5838 5837 5836 5835 5834 5834 5833 5833 5832 5831
5825 5825 5826 5826 5827 5826 5827 5830 5828 5829 5830 5830 5831 5831 5832 5832 5833 5834 5834 5835 5835 5836 5837 5836 5836 5836 5837 5837 5836 5836 5836 5836 5835 5835 5835 5834 5834 5834 5833 5832 5831 5831 5830 5829 5828 5828 5827 5826 5826
Wind_Speed
4 5 5 5 5 6 8 9 12 13 13 13 13 13 13 13 12 10 10 9 9 9 9 8 8 7 6 6 5 5 4 3 3 3 3 3 3 2 3 2 2 2 1 1 2 2 3 4 4
4 4 4 4 4 6 8 9 11 12 13 13 12 12 12 12 11 10 10 9 9 9 9 8 8 7 7 6 6 5 4 3 3 2 2 2 3 3 3 3 2 2 1 1 2 2 3 3 3
4 4 3 3 4 6 8 9 10 11 14 14 13 13 13 12 11 11 10 10 9 8 8 8 8 7 7 6 6 5 5 4 3 3 2 2 2 2 2 3 3 3 2 2 3 3 3 3 4
4 4 2 2 3 5 7 8 9 12 13 14 14 13 13 12 12 12 11 10 9 8 8 7 7 7 7 6 6 5 5 4 3 3 2 3 3 2 2 2 2 2 2 3 3 3 4 4 3
5 4 3 1 2 4 7 9 10 12 13 13 14 14 13 12 12 11 11 10 9 9 8 8 7 7 7 6 6 5 5 5 4 3 3 3 2 2 2 2 2 2 2 3 3 3 3 4 4
5 5 4 1 1 4 7 9 10 12 12 13 14 14 13 11 11 11 11 10 9 8 8 8 8 7 7 6 6 6 5 5 4 3 3 2 2 2 2 2 2 2 2 2 3 4 3 3 4
6 6 5 3 2 4 6 8 10 11 11 12 13 13 12 11 11 10 11 11 10 9 8 7 8 7 7 6 7 6 6 5 5 4 3 2 2 1 1 2 2 3 3 3 3 3 3 3 4
7 7 6 4 4 3 4 6 10 11 12 12 12 12 12 12 11 10 9 10 9 9 8 7 7 6 7 7 7 7 6 5 5 4 3 2 2 2 2 2 2 2 3 3 3 3 4 4 4
8 7 6 5 4 5 6 7 10 11 12 12 12 12 12 12 11 10 10 9 9 8 7 7 7 6 7 7 7 7 6 6 5 5 3 2 2 2 2 3 3 3 3 3 4 4 4 4 4
10 8 7 7 6 8 9 10 11 11 12 12 12 12 11 11 11 10 10 9 8 8 7 6 6 6 6 7 7 7 6 6 6 5 3 2 2 3 3 3 4 4 4 4 4 5 4 4 4
12 10 10 9 8 10 12 13 12 12 12 12 12 12 11 11 10 10 10 9 8 8 7 6 6 6 6 6 6 6 7 6 6 5 4 3 3 3 4 4 4 4 4 4 4 4 4 5 5
15 13 12 11 10 12 14 14 13 13 13 13 12 12 11 10 9 10 10 9 8 7 7 6 5 5 6 6 5 6 6 6 6 6 5 5 4 5 5 5 5 5 4 5 5 5 5 6 6
17 16 14 13 13 14 14 13 13 13 13 13 13 13 10 10 10 10 10 9 7 6 6 6 5 4 5 5 5 5 6 6 6 6 6 5 5 4 5 5 5 4 5 5 5 5 6 6 7
18 17 15 14 13 13 13 13 13 13 13 12 13 12 11 11 11 10 9 8 8 7 6 6 5 4 5 5 5 5 6 6 6 6 6 5 5 5 5 5 5 5 6 7 7 7 6 7 7
19 18 16 14 13 12 13 12 13 13 13 12 12 12 12 12 12 11 10 9 8 8 7 7 6 5 5 5 5 5 6 6 6 6 5 5 5 6 6 6 6 6 6 6 7 7 7 7 7
18 18 16 14 13 12 13 12 11 12 12 12 12 12 13 13 12 11 10 9 9 9 8 8 7 7 5 5 5 5 5 6 6 6 6 6 6 6 7 7 6 6 6 5 5 6 7 6 6
17 16 14 14 12 11 12 12 11 12 12 13 13 13 14 14 12 12 10 9 9 10 9 9 8 8 7 6 6 6 6 6 6 6 7 7 6 7 7 7 6 6 6 6 5 5 6 6 6
15 15 15 14 12 11 12 12 12 13 14 14 14 14 14 14 13 12 11 10 11 10 10 9 9 8 7 7 7 7 8 7 6 7 7 7 7 7 7 8 7 7 6 6 6 6 6 6 6
17 17 16 15 13 13 13 13 13 15 15 14 15 15 13 13 13 12 13 12 12 11 10 9 9 8 7 7 7 8 8 7 7 7 7 7 7 7 8 8 7 7 7 6 6 6 6 7 7
18 18 17 15 15 15 15 15 15 17 17 17 16 15 14 14 13 13 13 13 12 12 11 10 10 10 8 8 8 8 8 9 8 8 8 8 7 8 8 8 8 7 7 7 7 7 7 7 7
18 17 17 17 17 17 18 19 17 17 18 18 17 17 15 15 15 15 15 14 13 12 12 12 10 10 10 10 9 9 9 10 10 10 9 8 8 9 9 9 8 8 8 8 8 8 8 8 8
18 17 18 19 20 20 20 21 19 18 19 19 18 18 18 17 16 16 16 15 14 13 13 13 12 12 11 12 11 11 11 11 11 10 10 10 10 10 10 10 9 10 10 10 9 9 9 9 9
18 18 20 21 22 22 21 22 21 21 21 20 19 19 19 17 17 16 16 15 15 15 15 14 14 13 12 12 13 13 13 13 12 11 11 12 12 11 11 11 10 10 10 11 11 11 11 11 11
19 19 21 23 24 25 23 24 25 23 22 21 21 21 21 20 18 17 16 16 16 16 16 15 16 15 14 14 14 14 14 14 13 13 13 13 13 13 12 11 11 11 11 11 11 12 12 12 12
20 21 22 24 25 24 23 26 26 25 24 24 23 22 22 21 19 17 16 16 17 17 16 16 16 16 16 16 15 15 15 15 15 14 14 14 14 14 14 13 12 12 12 12 13 13 13 13 13
21 22 23 24 24 22 22 25 24 23 23 23 23 22 21 19 18 17 17 17 17 17 17 17 17 17 18 18 17 17 17 16 16 15 16 16 15 15 16 15 14 13 14 14 14 14 14 13 13
21 22 22 23 23 22 23 23 23 22 21 22 22 21 20 19 19 18 19 19 19 18 18 18 18 18 19 19 18 18 18 18 18 17 17 17 17 17 16 17 17 15 15 15 15 15 15 15 15
22 23 24 25 25 24 24 24 23 22 22 21 20 20 21 21 21 21 20 20 20 19 20 20 19 20 20 20 19 19 19 19 19 19 19 18 17 17 18 18 18 17 17 16 16 17 17 17 16
22 23 24 26 27 27 27 26 24 24 23 23 22 21 22 22 22 21 21 20 20 20 21 20 20 20 21 21 21 20 20 20 20 20 19 19 18 19 19 19 19 18 18 18 18 18 19 19 18
23 25 25 26 27 28 28 28 26 26 24 23 24 23 24 23 23 23 23 23 22 22 22 23 22 21 22 22 22 22 21 21 21 20 20 19 19 20 20 19 19 19 19 19 19 19 19 20 20
Wind_Direction
125 115 99 82 63 43 35 29 25 20 15 10 6 3 4 3 4 5 3 2 3 9 12 9 6 6 6 5 358 357 350 337 328 327 327 318 317 303 286 273 283 270 260 210 196 198 196 180 186
146 132 102 71 56 41 31 25 16 11 8 5 2 4 5 4 6 4 4 5 5 9 11 9 8 10 9 7 2 360 356 345 333 330 320 312 299 285 275 275 286 273 258 263 217 193 199 193 191
164 143 113 69 41 32 24 15 10 3 1 358 356 3 8 5 6 4 5 8 8 10 8 6 8 11 13 12 8 4 359 350 337 322 309 302 287 275 276 272 264 261 248 255 239 218 222 214 206
180 163 143 56 26 14 6 1 357 353 352 352 352 357 3 5 5 3 7 9 8 9 7 3 5 12 15 15 9 4 2 357 346 328 322 309 290 268 278 262 249 254 247 250 247 235 227 226 218
212 197 186 329 30 12 2 355 349 349 346 346 349 352 356 2 359 357 2 8 7 9 10 10 11 12 14 15 13 5 2 359 352 343 334 313 290 267 263 249 245 243 250 251 248 237 229 232 226
221 226 214 225 359 2 354 347 344 344 344 343 344 348 351 357 358 357 2 10 10 9 12 13 17 17 16 16 12 7 1 1 356 340 335 322 285 267 263 259 249 235 250 257 263 243 240 238 233
220 229 239 239 299 346 346 339 332 336 338 337 339 346 350 353 355 359 360 5 10 11 15 16 18 19 17 15 11 6 2 360 358 348 336 329 294 301 289 283 263 250 266 281 287 260 248 243 239
223 232 241 242 268 291 316 313 319 329 331 334 338 344 349 351 352 357 359 0 4 8 12 14 17 20 20 17 11 8 5 3 359 357 347 341 320 311 307 304 287 274 286 284 283 285 268 255 248
220 216 223 243 260 285 297 299 309 321 323 328 331 338 346 349 351 356 357 0 359 0 7 9 11 15 18 16 10 8 10 11 7 7 357 345 334 315 310 316 306 296 292 289 281 286 280 267 258
216 213 219 241 271 290 295 300 302 310 315 318 322 326 335 340 343 352 352 355 354 355 0 4 5 8 12 14 11 9 14 13 10 10 11 351 334 321 314 316 307 294 288 285 282 270 286 281 276
222 218 224 239 264 280 285 292 295 305 310 314 313 315 323 329 332 339 343 344 348 350 349 355 357 357 1 6 8 5 8 5 2 0 1 343 325 310 306 312 312 303 292 280 283 285 285 289 286
227 223 228 237 253 266 275 285 295 297 306 307 306 306 313 321 323 325 329 333 339 343 345 352 356 354 354 357 358 359 3 359 360 1 355 348 332 326 322 315 307 303 300 291 287 286 285 285 285
229 230 233 238 247 261 273 283 294 295 300 306 307 307 313 318 317 316 318 322 329 336 338 344 353 354 350 350 349 352 355 353 353 354 351 348 346 346 341 333 325 314 308 308 301 290 286 284 284
235 233 234 240 246 257 269 280 285 291 295 301 304 305 308 311 310 313 314 312 322 327 332 336 343 347 346 348 342 339 339 343 347 350 353 348 342 344 345 337 332 317 305 301 295 287 285 282 281
236 234 235 238 244 253 264 275 284 286 289 295 301 299 302 306 306 306 308 314 315 314 318 327 325 328 338 342 338 339 340 341 342 343 343 340 338 340 335 331 326 315 310 305 295 285 281 286 283
239 238 232 230 237 250 261 270 281 284 290 296 299 300 302 303 303 304 303 306 308 308 309 311 315 317 321 322 322 330 334 333 332 333 333 332 335 336 335 331 324 317 312 316 304 292 287 293 290
239 238 230 226 231 242 257 265 270 281 286 293 296 299 302 304 301 301 298 298 300 300 304 306 305 308 312 314 314 317 320 321 323 323 326 331 331 331 334 334 326 320 318 311 310 303 303 298 293
233 234 229 227 227 239 252 265 267 269 278 285 290 297 300 304 303 300 294 294 294 296 301 303 298 299 307 309 309 314 315 312 316 318 322 326 325 323 325 330 331 326 320 312 310 306 305 302 297
227 228 225 224 228 242 251 260 265 266 273 279 286 291 293 296 299 298 292 292 293 292 294 293 291 289 294 301 305 306 309 311 315 318 322 317 317 321 320 318 321 326 321 316 316 314 310 304 297
226 231 226 225 229 237 246 254 258 262 270 277 279 281 285 287 292 295 293 293 293 291 290 289 284 285 291 294 295 295 301 310 314 317 316 313 313 314 313 308 306 308 310 309 309 308 309 307 299
232 236 231 232 229 234 242 247 250 255 261 269 272 271 275 285 289 289 290 286 282 283 284 288 284 283 286 290 288 289 296 302 304 307 307 307 305 307 305 304 301 300 301 301 302 305 305 305 303
237 237 235 233 233 237 241 246 244 247 251 258 266 270 273 277 280 281 282 279 278 275 277 281 282 283 284 285 283 284 287 290 294 299 302 302 300 298 300 299 295 295 293 292 294 298 300 301 298
239 237 237 238 241 242 240 246 247 249 251 256 262 268 271 270 271 275 273 274 274 274 274 276 278 279 282 283 280 279 282 284 287 293 299 302 301 301 298 295 293 294 293 290 290 292 293 294 296
240 238 240 243 248 246 240 246 249 251 253 256 258 259 265 267 269 272 272 271 272 275 278 276 276 276 278 281 279 279 278 280 283 290 294 298 299 299 298 295 295 297 295 292 290 291 294 295 297
241 242 244 245 248 246 242 247 253 254 254 257 258 258 261 263 266 269 270 271 271 275 277 277 275 273 274 276 279 280 280 282 285 286 288 291 295 296 293 291 292 293 294 294 292 293 293 293 294
242 245 247 251 254 252 248 251 254 257 257 259 258 260 263 263 269 270 270 271 271 273 272 273 274 272 273 275 277 277 276 278 281 283 283 284 287 290 290 288 290 290 290 291 290 289 290 291 291
244 246 249 253 257 256 254 256 257 256 256 256 261 263 261 260 266 271 270 268 269 272 272 271 271 273 272 274 276 275 274 275 277 279 281 284 284 285 287 287 288 288 288 287 287 287 288 288 288
244 245 248 250 253 254 254 255 256 255 258 260 259 262 265 265 266 270 271 268 268 272 273 271 272 268 269 270 270 272 273 273 275 276 278 279 280 282 285 284 285 283 282 284 286 287 287 285 284
242 242 244 247 250 251 254 255 257 259 262 261 261 259 262 263 266 267 269 270 267 268 269 268 271 269 267 265 267 267 269 270 273 276 277 276 278 281 282 283 284 283 280 282 283 283 284 282 283
246 245 245 246 248 251 255 257 257 261 264 263 263 262 262 264 269 271 271 268 270 268 268 269 269 267 265 266 267 267 269 270 271 274 276 276 277 278 279 280 281 282 282 280 282 281 281 282 282